Home   Weather   Amsterdam   Past weeks

Flag for Netherlands Past Weather in Amsterdam, Netherlands — Yesterday and Last 2 Weeks

Now
61 °F

Passing clouds.


Feels Like: 61 °F
Forecast: 59 / 67 °F
Wind: 9 mph from South

Location: Amsterdam Schiphol Airport

Current Time: Aug 18, 2017 at 1:27:52 am

Latest Report: Aug 18, 2017 at 12:55 am


Visibility: N/A

Pressure: 29.89 "Hg

Humidity: 88%

Dew Point: 57 °F

Location of AmsterdamLocation

Past Weather in Amsterdam — Graph

°F

Amsterdam Temperature Yesterday

Maximum temperature yesterday: 68 °F (at 6:25 pm)
Minimum temperature yesterday: 57 °F (at 12:25 am)
Average temperature yesterday: 64 °F

High & Low Weather Summary for the Past Weeks

 TemperatureHumidityPressure
High75 °F (Aug 14, 3:25 pm)100% (Aug 5, 6:55 am)30.18 "Hg (Aug 5, 6:55 am)
Low52 °F (Aug 6, 2:55 am)50% (Aug 14, 3:25 pm)29.71 "Hg (Aug 3, 8:55 am)
Average63 °F80%29.99 "Hg
* Reported Aug 2 11:25 pm — Aug 17 11:55 pm, Amsterdam. Weather by CustomWeather, © 2017

Note: Actual official high and low records may vary slightly from our data, if they occured in-between our weather recording intervals... More about our weather records

Advertising

Amsterdam Weather History for the Previous 24 Hours

Scroll right to see more
 ConditionsComfort  
Time TempWeatherWind HumidityBarometerVisibility
11:55 pm
Thu, Aug 17
63 °FPassing clouds.12 mph88%29.89 "HgN/A
11:25 pm63 °FClear.12 mph88%29.89 "Hg10 mi
10:55 pm63 °FClear.13 mph83%29.89 "Hg10 mi
10:25 pm63 °FPassing clouds.10 mph83%29.92 "HgN/A
9:55 pm64 °FPassing clouds.12 mph78%29.92 "HgN/A
9:25 pm64 °FPassing clouds.13 mph78%29.89 "HgN/A
8:55 pm66 °FPassing clouds.12 mph83%29.89 "HgN/A
8:25 pm68 °FPassing clouds.13 mph88%29.89 "HgN/A
7:55 pm68 °FPassing clouds.12 mph88%29.89 "HgN/A
7:25 pm68 °FPassing clouds.13 mph88%29.89 "HgN/A
6:55 pm68 °FScattered showers. Passing clouds.15 mph88%29.89 "HgN/A
6:25 pm68 °FPassing clouds.13 mph88%29.89 "HgN/A
5:55 pm66 °FScattered clouds.16 mph94%29.89 "HgN/A
5:25 pm66 °FDrizzle. Mostly cloudy.14 mph94%29.89 "HgN/A
4:55 pm66 °FDrizzle. Broken clouds.13 mph94%29.89 "Hg6 mi
4:25 pm66 °FBroken clouds.13 mph94%29.89 "HgN/A
3:55 pm66 °FDrizzle. Mostly cloudy.14 mph88%29.89 "Hg4 mi
3:25 pm64 °FMostly cloudy.14 mph94%29.89 "HgN/A
2:55 pm64 °FDrizzle. Broken clouds.14 mph94%29.89 "HgN/A
2:25 pm64 °FBroken clouds.16 mph94%29.92 "HgN/A
1:55 pm64 °FBroken clouds.16 mph88%29.92 "HgN/A
1:25 pm64 °FBroken clouds.12 mph88%29.92 "HgN/A
12:55 pm63 °FDrizzle. Broken clouds.15 mph94%29.92 "Hg4 mi
12:25 pm64 °FDrizzle. Broken clouds.13 mph94%29.92 "HgN/A
11:55 am63 °FDrizzle. Broken clouds.14 mph94%29.92 "Hg4 mi
11:25 am63 °FDrizzle. Broken clouds.13 mph94%29.92 "Hg4 mi
10:55 am64 °FScattered clouds.14 mph88%29.92 "Hg4 mi
10:25 am64 °FLight rain. Passing clouds.8 mph88%29.92 "HgN/A
9:55 am64 °FLight rain. Passing clouds.12 mph83%29.92 "HgN/A
9:25 am64 °FPassing clouds.9 mph83%29.92 "HgN/A
8:55 am63 °FLight rain. Scattered clouds.12 mph88%29.92 "HgN/A
8:25 am64 °FLight rain. Scattered clouds.15 mph83%29.92 "HgN/A
7:55 am64 °FLight rain. Scattered clouds.12 mph78%29.92 "HgN/A
7:25 am63 °FPassing clouds.10 mph83%29.92 "HgN/A
6:55 am63 °FPassing clouds.12 mph83%29.95 "HgN/A
6:25 am61 °FPassing clouds.12 mph83%29.95 "HgN/A
5:55 am61 °FClear.10 mph83%29.95 "Hg10 mi
5:25 am61 °FClear.9 mph83%29.98 "Hg10 mi
4:55 am61 °FClear.9 mph83%29.98 "Hg10 mi
4:25 am61 °FClear.9 mph83%29.98 "Hg10 mi
3:55 am61 °FClear.9 mph88%30.01 "Hg10 mi
3:25 am61 °FClear.8 mph88%30.01 "Hg10 mi
2:55 am61 °FClear.10 mph88%30.01 "Hg10 mi
1:55 am59 °FClear.7 mph94%30.04 "Hg10 mi
1:25 am59 °FClear.2 mph94%30.04 "Hg10 mi
Weather by CustomWeather, © 2017

See weather overviewHow to use our weather pages